| time (UTC) | temp F | wind direction | speed knots | gust knots | rain 1hr in | rain 24hr in | rain mn in | humidity % | barometer mb |
| 20260503232151 | 55 | 188 | 4.3 | 8.7 | 0.00 | 0.00 | 0.00 | 56 | 1011.4 |
| 20260503231151 | 55 | 155 | 8.7 | 9.6 | 0.00 | 0.00 | 0.00 | 55 | 1011.5 |
| 20260503230151 | 55 | 205 | 7.0 | 13.0 | 0.00 | 0.00 | 0.00 | 55 | 1011.3 |
| 20260503225148 | 55 | 199 | 5.2 | 7.8 | 0.00 | 0.00 | 0.00 | 55 | 1011.7 |
| 20260503224149 | 55 | 190 | 4.3 | 7.8 | 0.00 | 0.00 | 0.00 | 54 | 1011.6 |
| 20260503223148 | 55 | 192 | 7.8 | 9.6 | 0.00 | 0.00 | 0.00 | 54 | 1011.6 |
| 20260503222143 | 55 | 218 | 5.2 | 7.0 | 0.00 | 0.00 | 0.00 | 55 | 1011.8 |
| 20260503221139 | 55 | 208 | 5.2 | 8.7 | 0.00 | 0.00 | 0.00 | 55 | 1011.9 |
| 20260503220138 | 55 | 196 | 0.9 | 2.6 | 0.00 | 0.00 | 0.00 | 56 | 1011.9 |
| 20260503215137 | 55 | 138 | 8.7 | 12.2 | 0.00 | 0.00 | 0.00 | 55 | 1011.8 |
| 20260503214137 | 55 | 216 | 5.2 | 7.8 | 0.00 | 0.00 | 0.00 | 56 | 1011.9 |
| 20260503213133 | 55 | 181 | 5.2 | 7.8 | 0.00 | 0.00 | 0.00 | 53 | 1011.8 |
| 20260503212128 | 54 | 259 | 3.5 | 4.3 | 0.00 | 0.00 | 0.00 | 56 | 1012.0 |
| 20260503211127 | 54 | 266 | 4.3 | 6.1 | 0.00 | 0.00 | 0.00 | 57 | 1012.1 |
| 20260503210126 | 54 | 313 | 10.4 | 13.9 | 0.00 | 0.00 | 0.00 | 55 | 1012.4 |
| 20260503205124 | 54 | 282 | 7.8 | 8.7 | 0.00 | 0.00 | 0.00 | 55 | 1012.4 |
| 20260503204124 | 55 | 268 | 2.6 | 6.1 | 0.00 | 0.00 | 0.00 | 54 | 1012.5 |
| 20260503203119 | 55 | 253 | 3.5 | 4.3 | 0.00 | 0.00 | 0.00 | 55 | 1012.4 |
| 20260503202114 | 55 | 339 | 7.0 | 12.2 | 0.00 | 0.00 | 0.00 | 55 | 1012.3 |
| 20260503201109 | 55 | 330 | 8.7 | 13.9 | 0.00 | 0.00 | 0.00 | 54 | 1012.6 |
| 20260503200107 | 55 | 270 | 13.0 | 15.6 | 0.00 | 0.00 | 0.00 | 53 | 1012.5 |
| 20260503195105 | 55 | 230 | 4.3 | 7.0 | 0.00 | 0.00 | 0.00 | 52 | 1012.6 |
| 20260503194103 | 56 | 239 | 6.1 | 7.8 | 0.00 | 0.00 | 0.00 | 51 | 1012.6 |
| 20260503193101 | 56 | 294 | 12.2 | 14.8 | 0.00 | 0.00 | 0.00 | 51 | 1012.5 |
| 20260503192100 | 56 | 281 | 10.4 | 15.6 | 0.00 | 0.00 | 0.00 | 49 | 1012.7 |
| 20260503191059 | 56 | 242 | 8.7 | 14.8 | 0.00 | 0.00 | 0.00 | 50 | 1012.8 |
| 20260503190059 | 56 | 301 | 13.0 | 14.8 | 0.00 | 0.00 | 0.00 | 49 | 1012.9 |
| 20260503185055 | 57 | 249 | 11.3 | 14.8 | 0.00 | 0.00 | 0.00 | 46 | 1012.9 |
| 20260503184054 | 57 | 275 | 13.0 | 15.6 | 0.00 | 0.00 | 0.00 | 43 | 1012.6 |
| 20260503183054 | 57 | 187 | 7.0 | 8.7 | 0.00 | 0.00 | 0.00 | 42 | 1012.6 |
| 20260503182050 | 58 | 170 | 8.7 | 12.2 | 0.00 | 0.00 | 0.00 | 41 | 1012.5 |
| 20260503181049 | 58 | 222 | 9.6 | 12.2 | 0.00 | 0.00 | 0.00 | 41 | 1012.7 |
| 20260503180044 | 57 | 214 | 12.2 | 18.2 | 0.00 | 0.00 | 0.00 | 44 | 1013.2 |
| 20260503175044 | 56 | 211 | 9.6 | 13.9 | 0.00 | 0.00 | 0.00 | 55 | 1012.9 |
| 20260503174043 | 56 | 211 | 9.6 | 13.9 | 0.00 | 0.00 | 0.00 | 55 | 1013.2 |
| 20260503173041 | 56 | 210 | 19.1 | 21.7 | 0.00 | 0.00 | 0.00 | 58 | 1013.5 |
| 20260503172041 | 54 | 192 | 5.2 | 9.6 | 0.00 | 0.00 | 0.00 | 58 | 1013.7 |
| 20260503171041 | 55 | 192 | 15.6 | 19.1 | 0.00 | 0.00 | 0.00 | 57 | 1013.7 |
| 20260503131007 | 42 | 230 | 2.6 | 5.2 | 0.00 | 0.00 | 0.00 | 63 | 1016.7 |
| 20260503080849 | 0 | 0.0 | 0.0 | 0.00 | 0.00 | 0.00 | 1016.8 | ||
| 20260503072840 | 36 | 201 | 1.7 | 2.6 | 0.00 | 0.00 | 0.00 | 82 | 1016.8 |
| 20260503071839 | 36 | 201 | 1.7 | 2.6 | 0.00 | 0.00 | 0.00 | 82 | 1016.8 |
| 20260503070838 | 36 | 201 | 0.9 | 1.7 | 0.00 | 0.00 | 0.00 | 81 | 1017.0 |
| 20260503054820 | 37 | 196 | 0.9 | 1.7 | 0.00 | 0.00 | 0.00 | 73 | 1017.7 |
| 20260503053819 | 37 | 201 | 2.6 | 7.0 | 0.00 | 0.00 | 0.00 | 72 | 1017.8 |
| 20260503052819 | 37 | 193 | 0.9 | 1.7 | 0.00 | 0.00 | 0.00 | 70 | 1017.8 |
| 20260503051818 | 37 | 217 | 0.9 | 1.7 | 0.00 | 0.00 | 0.00 | 68 | 1017.8 |
| 20260503050818 | 37 | 226 | 1.7 | 1.7 | 0.00 | 0.00 | 0.00 | 65 | 1017.9 |
| 20260503045817 | 37 | 222 | 2.6 | 2.6 | 0.00 | 0.00 | 0.00 | 62 | 1017.8 |
| 20260503044817 | 37 | 210 | 2.6 | 5.2 | 0.00 | 0.00 | 0.00 | 58 | 1018.1 |
| 20260503043816 | 37 | 195 | 1.7 | 1.7 | 0.00 | 0.00 | 0.00 | 56 | 1018.0 |
| 20260503042815 | 37 | 181 | 1.7 | 4.3 | 0.00 | 0.00 | 0.00 | 55 | 1018.1 |
| 20260503041814 | 37 | 226 | 0.0 | 0.9 | 0.00 | 0.00 | 0.00 | 53 | 1018.0 |
| 20260503040809 | 37 | 207 | 0.0 | 0.9 | 0.00 | 0.00 | 0.00 | 51 | 1018.4 |
| 20260503035808 | 37 | 197 | 0.0 | 0.0 | 0.00 | 0.00 | 0.00 | 51 | 1018.3 |
| 20260503034808 | 38 | 202 | 0.0 | 0.0 | 0.00 | 0.00 | 0.00 | 49 | 1018.0 |
| 20260503033808 | 38 | 217 | 0.0 | 0.0 | 0.00 | 0.00 | 0.00 | 49 | 1018.4 |
| 20260503032804 | 38 | 215 | 0.0 | 0.0 | 0.00 | 0.00 | 0.00 | 48 | 1018.4 |
| 20260503031759 | 39 | 245 | 0.0 | 0.0 | 0.00 | 0.00 | 0.00 | 48 | 1018.4 |
| 20260503030759 | 39 | 233 | 0.0 | 0.9 | 0.00 | 0.00 | 0.00 | 48 | 1018.3 |
| 20260503025757 | 39 | 225 | 0.0 | 0.0 | 0.00 | 0.00 | 0.00 | 48 | 1018.3 |
| 20260503024758 | 39 | 224 | 0.0 | 0.0 | 0.00 | 0.00 | 0.00 | 48 | 1018.7 |
| 20260503023757 | 39 | 222 | 0.0 | 0.0 | 0.00 | 0.00 | 0.00 | 48 | 1018.5 |
| 20260503022756 | 39 | 214 | 0.0 | 0.0 | 0.00 | 0.00 | 0.00 | 48 | 1018.7 |
| 20260503021753 | 39 | 230 | 0.0 | 0.0 | 0.00 | 0.00 | 0.00 | 46 | 1018.7 |
| 20260503020753 | 39 | 231 | 0.0 | 0.0 | 0.00 | 0.00 | 0.00 | 46 | 1018.7 |
| 20260503015752 | 39 | 247 | 0.0 | 0.0 | 0.00 | 0.00 | 0.00 | 47 | 1018.6 |
| 20260503014751 | 39 | 143 | 0.0 | 0.0 | 0.00 | 0.00 | 0.00 | 46 | 1018.7 |
| 20260503013746 | 39 | 132 | 0.0 | 0.0 | 0.00 | 0.00 | 0.00 | 46 | 1018.5 |
| 20260503012746 | 39 | 134 | 0.9 | 0.9 | 0.00 | 0.00 | 0.00 | 46 | 1018.5 |
| 20260503011746 | 39 | 137 | 0.9 | 0.9 | 0.00 | 0.00 | 0.00 | 46 | 1018.4 |
| 20260503010745 | 40 | 221 | 0.9 | 0.9 | 0.00 | 0.00 | 0.00 | 46 | 1018.3 |
| 20260503005740 | 40 | 245 | 0.9 | 0.9 | 0.00 | 0.00 | 0.00 | 45 | 1018.3 |
| 20260503004739 | 40 | 264 | 0.0 | 0.0 | 0.00 | 0.00 | 0.00 | 46 | 1018.3 |
| 20260503003734 | 40 | 294 | 0.0 | 0.9 | 0.00 | 0.00 | 0.00 | 45 | 1018.0 |
| 20260503002733 | 41 | 276 | 0.9 | 0.9 | 0.00 | 0.00 | 0.00 | 43 | 1018.0 |
| 20260503001732 | 42 | 311 | 2.6 | 4.3 | 0.00 | 0.00 | 0.00 | 40 | 1018.1 |
| 20260503000727 | 42 | 323 | 2.6 | 4.3 | 0.00 | 0.00 | 0.00 | 39 | 1018.0 |
| 20260502235726 | 42 | 329 | 2.6 | 2.6 | 0.00 | 0.00 | 0.00 | 39 | 1018.1 |
| 20260502234726 | 43 | 341 | 2.6 | 5.2 | 0.00 | 0.00 | 0.00 | 38 | 1018.0 |
| 20260502233726 | 43 | 312 | 3.5 | 5.2 | 0.00 | 0.00 | 0.00 | 38 | 1017.8 |
| 20260502232724 | 44 | 336 | 0.9 | 1.7 | 0.00 | 0.00 | 0.00 | 39 | 1018.0 |